TimeCDT,TemperatureF,Dew PointF,Humidity,Sea Level PressureIn,VisibilityMPH,Wind Direction,Wind SpeedMPH,Gust SpeedMPH,PrecipitationIn,Events,Conditions,WindDirDegrees,DateUTC
12:54 AM,61.0,54.0,78,29.56,10.0,WNW,11.5,-,N/A,,Mostly Cloudy,290,2013-05-21 05:54:00
1:54 AM,60.1,53.1,78,29.57,10.0,West,9.2,-,N/A,,Overcast,270,2013-05-21 06:54:00
2:54 AM,59.0,53.1,81,29.58,10.0,WSW,9.2,-,N/A,,Overcast,240,2013-05-21 07:54:00
3:14 AM,59.0,53.6,82,29.61,10.0,WSW,13.8,-,N/A,,Overcast,250,2013-05-21 08:14:00
3:22 AM,59.0,51.8,77,29.61,10.0,West,13.8,-,N/A,,Overcast,260,2013-05-21 08:22:00
3:54 AM,59.0,50.0,72,29.58,10.0,West,10.4,-,N/A,,Overcast,260,2013-05-21 08:54:00
4:11 AM,57.2,51.8,82,29.61,10.0,WSW,13.8,-,N/A,,Mostly Cloudy,250,2013-05-21 09:11:00
4:19 AM,57.2,50.0,77,29.61,10.0,West,13.8,-,N/A,,Mostly Cloudy,260,2013-05-21 09:19:00
4:54 AM,57.9,48.9,72,29.58,10.0,WSW,13.8,-,N/A,,Overcast,250,2013-05-21 09:54:00
5:36 AM,57.2,48.2,72,29.62,10.0,West,10.4,-,N/A,,Overcast,270,2013-05-21 10:36:00
5:54 AM,57.9,48.9,72,29.60,10.0,West,11.5,-,N/A,,Overcast,270,2013-05-21 10:54:00
6:54 AM,57.9,48.0,70,29.62,10.0,West,15.0,-,N/A,,Overcast,260,2013-05-21 11:54:00
7:54 AM,57.9,48.0,70,29.62,10.0,WSW,13.8,21.9,N/A,,Mostly Cloudy,250,2013-05-21 12:54:00
8:54 AM,60.1,46.9,62,29.64,10.0,West,17.3,26.5,N/A,,Overcast,260,2013-05-21 13:54:00
9:29 AM,60.8,46.4,59,29.66,10.0,West,19.6,24.2,N/A,,Overcast,260,2013-05-21 14:29:00
9:54 AM,61.0,46.0,58,29.63,10.0,West,23.0,27.6,N/A,,Overcast,260,2013-05-21 14:54:00
10:54 AM,62.1,46.0,56,29.62,10.0,WSW,23.0,26.5,N/A,,Overcast,250,2013-05-21 15:54:00
11:54 AM,61.0,46.0,58,29.62,10.0,WSW,19.6,-,N/A,,Overcast,250,2013-05-21 16:54:00
12:54 PM,63.0,46.0,54,29.63,10.0,WSW,23.0,28.8,N/A,,Overcast,240,2013-05-21 17:54:00
1:54 PM,62.1,46.0,56,29.65,10.0,SW,24.2,27.6,N/A,,Overcast,230,2013-05-21 18:54:00
2:54 PM,61.0,48.0,62,29.66,10.0,SW,20.7,-,N/A,,Overcast,230,2013-05-21 19:54:00
3:54 PM,64.0,48.9,58,29.63,10.0,WSW,23.0,27.6,N/A,,Overcast,240,2013-05-21 20:54:00
4:06 PM,64.4,50.0,59,29.65,10.0,SW,19.6,24.2,N/A,,Overcast,230,2013-05-21 21:06:00
4:54 PM,63.0,52.0,67,29.63,10.0,WSW,20.7,-,N/A,,Overcast,240,2013-05-21 21:54:00
5:04 PM,64.4,51.8,64,29.65,10.0,WSW,18.4,-,N/A,,Overcast,250,2013-05-21 22:04:00
5:40 PM,62.6,53.6,72,29.65,5.0,WSW,18.4,-,N/A,,Haze,250,2013-05-21 22:40:00
5:49 PM,60.8,53.6,77,29.65,2.0,WSW,20.7,-,0.00,Rain,Light Rain,240,2013-05-21 22:49:00
5:54 PM,60.1,55.0,83,29.64,2.5,WSW,15.0,-,0.00,Rain,Light Rain,240,2013-05-21 22:54:00
6:01 PM,60.8,55.4,82,29.66,3.0,WSW,17.3,-,0.00,Rain,Light Rain,250,2013-05-21 23:01:00
6:04 PM,60.8,55.4,82,29.66,1.8,West,18.4,23.0,0.00,Rain,Light Rain,260,2013-05-21 23:04:00
6:30 PM,59.0,55.4,88,29.66,3.0,SW,13.8,-,0.00,Rain,Light Rain,230,2013-05-21 23:30:00
6:43 PM,60.8,55.4,82,29.66,2.5,WSW,16.1,21.9,0.00,Rain,Light Rain,240,2013-05-21 23:43:00
6:52 PM,60.8,55.4,82,29.67,8.0,WSW,18.4,-,0.00,Rain,Light Rain,250,2013-05-21 23:52:00
6:54 PM,60.1,55.0,83,29.65,10.0,WSW,18.4,-,0.00,,Overcast,250,2013-05-21 23:54:00
7:54 PM,59.0,53.1,81,29.66,10.0,WNW,15.0,24.2,N/A,,Overcast,290,2013-05-22 00:54:00
8:41 PM,57.2,51.8,82,29.68,10.0,WNW,18.4,28.8,N/A,,Mostly Cloudy,300,2013-05-22 01:41:00
8:54 PM,57.9,51.1,78,29.67,10.0,WNW,13.8,-,N/A,,Scattered Clouds,300,2013-05-22 01:54:00
9:47 PM,57.2,50.0,77,29.71,10.0,WNW,18.4,29.9,N/A,,Mostly Cloudy,300,2013-05-22 02:47:00
9:54 PM,57.0,50.0,77,29.69,10.0,WNW,16.1,26.5,N/A,,Mostly Cloudy,300,2013-05-22 02:54:00
10:54 PM,55.9,48.9,77,29.69,10.0,WNW,15.0,21.9,N/A,,Overcast,300,2013-05-22 03:54:00
11:54 PM,55.0,48.9,80,29.69,10.0,WNW,16.1,-,N/A,,Overcast,300,2013-05-22 04:54:00